Weather History for K14Y - October, 2013

Change the Weather History Date:

Wednesday, October 2, 2013

  Actual Average (KAXN) Record (KAXN)
Temperature  
Mean Temperature 52 °F -  
Max Temperature 68 °F 62 °F 90 °F (1953)
Min Temperature 37 °F 40 °F 24 °F (1974)
Degree Days  
Heating Degree Days 12    
Growing Degree Days 2 (Base 50)    
Moisture  
Dew Point 43 °F    
Average Humidity 82    
Maximum Humidity 100    
Minimum Humidity 33    
Precipitation  
Precipitation 0.56 in - - ()
Sea Level Pressure  
Sea Level Pressure 29.98 in    
Wind  
Wind Speed 4 mph (ENE)    
Max Wind Speed 17 mph    
Max Gust Speed 22 mph    
Visibility 9 miles    
Events Rain , Thunderstorm    
Averages and records for this station are not official NWS values.
T = Trace of Precipitation, MM = Missing Value Source: NWS Daily Summary

Daily Weather History Graph

Daily Weather History Graph

Search for Another Location

Airport or City:

Trip Planner

Search our weather history database for the weather conditions in past years. The results will help you decide how hot, cold, wet, or windy it might be!

Date:

Astronomy

Oct. 02, 2013 Rise Set
Actual Time 7:19 AM CDT 6:57 PM CDT
Civil Twilight 6:49 AM CDT 7:26 PM CDT
Nautical Twilight 6:15 AM CDT 8:01 PM CDT
Astronomical Twilight 5:40 AM CDT 8:36 PM CDT
Moon 4:47 AM CDT (10/2) 5:37 PM CDT (10/2)
Length of Visible Light 12h 37m
Length of Day
11h 37m
Waning Crescent, 6% of the Moon is Illuminated
Oct 2
Waning Crescent
Oct 4
New
Oct 11
First Quarter
Oct 18
Full
Oct 26
Last Quarter

Hourly Weather History & Observations

Time (CDT) Temp. Windchill Dew Point Humidity Pressure Visibility Wind Dir Wind Speed Gust Speed Precip Events Conditions
12:14 AM 42.8 °F - 39.2 °F 87% 30.00 in 10.0 mi Calm Calm - N/A   Clear
12:34 AM 42.8 °F 41.1 °F 39.2 °F 87% 30.00 in 10.0 mi SW 3.5 mph - N/A   Clear
12:54 AM 41.0 °F - 37.4 °F 87% 30.01 in 10.0 mi Calm Calm - N/A   Clear
1:15 AM 42.8 °F - 37.4 °F 81% 30.01 in 10.0 mi Calm Calm - N/A   Clear
1:35 AM 41.0 °F 39.0 °F 39.2 °F 93% 30.01 in 10.0 mi South 3.5 mph - N/A   Clear
1:54 AM 41.0 °F - 39.2 °F 93% 30.02 in 10.0 mi Calm Calm - N/A   Clear
2:14 AM 41.0 °F - 39.2 °F 93% 30.02 in 10.0 mi Calm Calm - N/A   Clear
2:34 AM 41.0 °F - 39.2 °F 93% 30.02 in 10.0 mi Calm Calm - N/A   Clear
2:54 AM 41.0 °F - 39.2 °F 93% 30.01 in 10.0 mi Calm Calm - N/A   Clear
3:15 AM 41.0 °F - 37.4 °F 87% 30.01 in 10.0 mi Calm Calm - N/A   Clear
3:35 AM 39.2 °F - 37.4 °F 93% 30.01 in 10.0 mi Calm Calm - N/A   Clear
3:54 AM 39.2 °F - 37.4 °F 93% 30.01 in 10.0 mi Calm Calm - N/A   Clear
4:15 AM 37.4 °F - 37.4 °F 100% 30.01 in 10.0 mi Calm Calm - N/A   Clear
4:35 AM 37.4 °F - 37.4 °F 100% 30.01 in 10.0 mi Calm Calm - N/A   Clear
4:55 AM 37.4 °F - 37.4 °F 100% 30.01 in 10.0 mi Calm Calm - N/A   Clear
5:14 AM 37.4 °F - 37.4 °F 100% 30.01 in 10.0 mi Calm Calm - N/A   Clear
5:34 AM 37.4 °F - 37.4 °F 100% 30.02 in 10.0 mi Calm Calm - N/A   Clear
5:54 AM 37.4 °F - 37.4 °F 100% 30.02 in 10.0 mi Calm Calm - N/A   Clear
6:14 AM 37.4 °F - 37.4 °F 100% 30.02 in 10.0 mi Calm Calm - N/A   Clear
6:35 AM 37.4 °F - 35.6 °F 93% 30.00 in 10.0 mi Calm Calm - N/A   Clear
6:55 AM 37.4 °F - 35.6 °F 93% 30.01 in 10.0 mi Calm Calm - N/A   Clear
7:15 AM 37.4 °F 34.9 °F 35.6 °F 93% 30.00 in 10.0 mi SSE 3.5 mph - N/A   Clear
7:35 AM 41.0 °F - 37.4 °F 87% 30.01 in 10.0 mi Calm Calm - N/A   Clear
7:55 AM 42.8 °F - 41.0 °F 93% 30.02 in 10.0 mi Calm Calm - N/A   Scattered Clouds
8:14 AM 44.6 °F - 41.0 °F 87% 30.01 in 10.0 mi Calm Calm - N/A   Mostly Cloudy
8:34 AM 46.4 °F 45.2 °F 44.6 °F 93% 30.02 in 10.0 mi SSE 3.5 mph - N/A   Scattered Clouds
8:54 AM 48.2 °F - 42.8 °F 82% 30.02 in 10.0 mi Calm Calm - N/A   Scattered Clouds
9:15 AM 53.6 °F - 42.8 °F 67% 30.02 in 10.0 mi Calm Calm - N/A   Clear
9:35 AM 57.2 °F - 42.8 °F 59% 30.02 in 10.0 mi SE 4.6 mph - N/A   Clear
9:55 AM 59.0 °F - 41.0 °F 51% 30.02 in 10.0 mi SE 6.9 mph - N/A   Clear
10:15 AM 60.8 °F - 42.8 °F 52% 30.02 in 10.0 mi SE 9.2 mph - N/A   Clear
10:34 AM 59.0 °F - 42.8 °F 55% 30.02 in 10.0 mi SE 3.5 mph - N/A   Clear
10:54 AM 62.6 °F - 42.8 °F 48% 30.02 in 10.0 mi SE 8.1 mph - N/A   Clear
11:14 AM 62.6 °F - 41.0 °F 45% 30.02 in 10.0 mi SE 9.2 mph - N/A   Clear
11:35 AM 64.4 °F - 41.0 °F 42% 30.02 in 10.0 mi SE 6.9 mph - N/A   Clear
11:55 AM 64.4 °F - 39.2 °F 40% 30.01 in 10.0 mi ESE 8.1 mph - N/A   Scattered Clouds
12:15 PM 66.2 °F - 41.0 °F 40% 30.01 in 10.0 mi ESE 6.9 mph - N/A   Scattered Clouds
12:35 PM 66.2 °F - 39.2 °F 37% 30.00 in 10.0 mi ESE 9.2 mph - N/A   Scattered Clouds
12:54 PM 68.0 °F - 41.0 °F 37% 29.98 in 7.0 mi ESE 10.4 mph - N/A   Scattered Clouds
1:14 PM 64.4 °F - 39.2 °F 40% 29.96 in 5.0 mi East 8.1 mph - N/A   Haze
1:34 PM 68.0 °F - 41.0 °F 37% 29.93 in 4.0 mi East 8.1 mph - N/A   Haze
1:55 PM 68.0 °F - 37.4 °F 33% 29.91 in 7.0 mi East 10.4 mph 18.4 mph N/A   Mostly Cloudy
2:15 PM 66.2 °F - 37.4 °F 35% 29.90 in 10.0 mi East 6.9 mph - N/A Thunderstorm Thunderstorm
2:30 PM 60.8 °F - 42.8 °F 52% 29.93 in 5.0 mi NNW 4.6 mph - 0.04 in Rain , Thunderstorm Thunderstorms and Rain
2:55 PM 53.6 °F - 48.2 °F 82% 29.98 in 1.8 mi Calm Calm - 0.17 in Rain , Thunderstorm Thunderstorms and Rain
3:15 PM 53.6 °F - 50.0 °F 88% 29.94 in 10.0 mi NE 8.1 mph - 0.01 in Rain , Thunderstorm Light Thunderstorms and Rain
3:34 PM 53.6 °F - 50.0 °F 88% 29.94 in 10.0 mi NNE 5.8 mph - 0.02 in Rain , Thunderstorm Light Thunderstorms and Rain
3:55 PM 51.8 °F - 50.0 °F 94% 29.98 in 10.0 mi NW 11.5 mph 16.1 mph 0.06 in Rain , Thunderstorm Thunderstorms and Rain
4:15 PM 51.8 °F - 50.0 °F 94% 29.95 in 2.0 mi NNE 10.4 mph - 0.06 in Rain , Thunderstorm Heavy Thunderstorms and Rain
4:35 PM 51.8 °F - 48.2 °F 88% 29.91 in 7.0 mi ENE 17.3 mph 21.9 mph 0.11 in Rain Rain
4:54 PM 51.8 °F - 48.2 °F 88% 29.90 in 5.0 mi NE 12.7 mph - 0.16 in Rain Rain
5:05 PM 51.8 °F - 48.2 °F 88% 29.92 in 10.0 mi NNE 9.2 mph - 0.01 in Rain , Thunderstorm Rain
5:35 PM 50.0 °F - 50.0 °F 100% 29.95 in 5.0 mi NNW 9.2 mph - 0.13 in Rain Light Rain
5:55 PM 50.0 °F - 48.2 °F 94% 29.95 in 7.0 mi NNW 10.4 mph - 0.14 in Rain Rain
6:15 PM 50.0 °F - 50.0 °F 100% 29.93 in 10.0 mi North 12.7 mph 19.6 mph 0.01 in Rain Light Rain
6:35 PM 50.0 °F - 50.0 °F 100% 29.93 in 10.0 mi North 12.7 mph 20.7 mph 0.02 in Rain Light Rain
6:55 PM 50.0 °F - 50.0 °F 100% 29.93 in 10.0 mi North 11.5 mph 16.1 mph 0.02 in   Overcast
7:15 PM 51.8 °F - 50.0 °F 94% 29.92 in 10.0 mi NNE 9.2 mph 16.1 mph N/A   Overcast
7:35 PM 50.0 °F - 50.0 °F 100% 29.93 in 7.0 mi NNE 9.2 mph 17.3 mph 0.01 in Rain Light Rain
7:54 PM 50.0 °F - 48.2 °F 94% 29.92 in 10.0 mi NNE 9.2 mph 17.3 mph 0.01 in Rain Light Rain
8:14 PM 50.0 °F - 48.2 °F 94% 29.92 in 10.0 mi NNE 9.2 mph - N/A   Overcast
8:35 PM 50.0 °F - 48.2 °F 94% 29.93 in 10.0 mi NNE 9.2 mph - N/A Thunderstorm Overcast
8:55 PM 50.0 °F - 48.2 °F 94% 29.92 in 10.0 mi NE 10.4 mph - N/A   Overcast
9:15 PM 50.0 °F - 48.2 °F 94% 29.93 in 10.0 mi NNE 9.2 mph - N/A   Overcast
9:35 PM 50.0 °F - 48.2 °F 94% 29.92 in 10.0 mi NE 11.5 mph 17.3 mph N/A   Overcast
9:55 PM 50.0 °F - 48.2 °F 94% 29.92 in 10.0 mi NE 9.2 mph 18.4 mph N/A   Overcast
10:14 PM 50.0 °F - 48.2 °F 94% 29.93 in 10.0 mi NE 11.5 mph - N/A   Overcast
10:35 PM 50.0 °F - 48.2 °F 94% 29.93 in 10.0 mi NNE 9.2 mph - N/A   Overcast
10:55 PM 50.0 °F - 48.2 °F 94% 29.93 in 10.0 mi NNE 4.6 mph - N/A   Overcast
11:15 PM 50.0 °F - 48.2 °F 94% 29.93 in 10.0 mi NNE 5.8 mph - N/A   Overcast
11:35 PM 50.0 °F - 48.2 °F 94% 29.93 in 10.0 mi NNE 6.9 mph - N/A   Mostly Cloudy
11:54 PM 50.0 °F - 48.2 °F 94% 29.92 in 10.0 mi NNE 5.8 mph - N/A   Scattered Clouds